#timestamp,LO_Frequency,Hit,StdDev 
1560967215.5,286046997.1,P
1560967235.4,286046997.1,P
1560967255.2,286046996.7,Y
1560967275.0,286047001.1,P
1560967275.9,286047001.1,N
1560967295.8,286047001.1,N
1560967315.6,286047001.0,N
1560967335.4,286047001.2,N
1560967355.3,286046999.4,N
1560967375.1,286046999.0,N
1560967395.9,286046998.6,N
1560967415.7,286047000.8,N
1560967435.5,286047000.3,N
1560967455.4,286046998.8,N
1560967475.2,286046998.8,N
1560967495.0,286046997.0,N
1560967495.9,286046997.0,N
1560967515.8,286046999.0,N
1560967535.6,286046997.0,N
1560967555.5,286046998.4,N
1560967575.3,286046998.5,N
1560967595.1,286047000.9,N
1560967615.9,286046999.8,N
1560967635.7,286047002.7,N
1560967655.6,286047001.9,N
1560967675.4,286047001.9,N
1560967695.2,286047002.5,N
1560967715.1,286047002.2,N
1560967716.0,286047002.2,N
1560967735.8,286047002.2,N
1560967755.6,286047002.5,N
1560967775.5,286047001.8,N
1560967795.3,286047001.3,N
1560967815.2,286047001.4,N
1560967835.9,286047001.8,N
1560967855.7,286047004.4,N
1560967875.6,286047004.3,N
1560967895.4,286047001.5,N
1560967915.3,286047001.5,N
1560967935.1,286047003.9,N
1560967936.0,286047003.9,N
1560967955.8,286047001.3,N
1560967975.7,286047001.5,N
1560967995.5,286047004.4,N
1560968015.4,286047002.0,N
1560968035.2,286047002.0,N
1560968055.0,286047001.9,N
1560968055.9,286047001.9,N
1560968075.8,286047002.5,N
1560968095.6,286047000.0,N
1560968115.5,286046999.7,N
1560968135.3,286047002.4,N
1560968155.1,286047002.8,N
1560968175.9,286047002.2,N
1560968195.7,286047001.8,N
1560968215.5,286047002.6,N
1560968235.4,286047001.5,N
1560968255.2,286047002.5,N
1560968275.1,286047003.9,Y
1560968276.0,286047003.9,P
1560968295.8,286047000.2,N
1560968315.6,286047002.7,N
1560968335.5,286047000.3,N
1560968355.3,286047000.2,N
1560968375.2,286047000.4,N
1560968395.9,286046999.8,N
1560968415.7,286047002.5,N
1560968435.6,286047002.4,N
1560968455.4,286046999.8,N
1560968475.2,286047002.0,N
1560968495.1,286047002.0,N
1560968496.0,286047002.0,N
1560968515.8,286047002.4,N
1560968535.7,286047002.3,N
1560968555.5,286047002.2,N
1560968575.3,286047002.2,N
1560968595.2,286047002.1,N
1560968615.0,286047002.4,N
1560968615.9,286047002.4,N
1560968635.8,286047001.5,N
1560968655.6,286047003.5,Y
1560968675.4,286047002.7,P
1560968695.3,286047000.0,N
1560968715.1,286046999.9,N
1560968735.8,286047002.8,N
1560968755.7,286047002.7,N
1560968775.5,286047000.7,N
1560968795.4,286047000.7,N
1560968815.2,286047001.1,N
1560968835.0,286047001.0,N
1560968835.9,286047001.0,N
1560968855.8,286047000.4,N
1560968875.6,286046999.9,N
1560968895.4,286047000.9,N
1560968915.3,286046999.7,N
1560968935.1,286046998.5,N
1560968955.9,286046998.9,N
1560968975.7,286046998.9,N
1560968995.5,286047000.0,N
1560969015.4,286046998.3,N
1560969035.2,286046998.5,N
1560969055.0,286046998.5,N
1560969056.0,286046998.5,N
1560969075.8,286046998.2,N
1560969095.6,286047001.2,N
1560969115.5,286047001.2,N
1560969135.3,286047000.0,N
1560969155.1,286047000.3,N
1560969175.9,286047001.0,N
1560969195.7,286047000.7,N
1560969215.5,286047001.1,N
1560969235.4,286047000.5,N
1560969255.2,286046998.5,N
1560969275.1,286046998.4,N
1560969276.0,286046998.4,N
1560969295.8,286047000.8,N
1560969315.6,286047001.0,N
1560969335.5,286047000.0,N
1560969355.3,286047000.9,N
1560969375.1,286046998.2,N
1560969395.9,286046998.2,N
1560969415.7,286047000.7,N
1560969435.6,286046999.7,N
1560969455.4,286047002.3,N
1560969475.2,286047002.3,N
1560969495.1,286047000.0,N
1560969496.0,286047000.0,N
1560969515.8,286047002.4,N
1560969535.6,286046999.7,N
1560969555.5,286047000.2,N
1560969575.3,286046999.7,N
1560969595.2,286047002.4,N
1560969615.9,286047000.3,N
1560969635.7,286047000.7,N
1560969655.6,286047001.1,N
1560969675.4,286047000.0,N
1560969695.2,286046999.7,N
1560969715.1,286046998.5,N
1560969716.0,286046998.5,N
1560969735.8,286047001.1,N
1560969755.7,286047000.1,N
1560969775.5,286046999.7,N
1560969795.3,286047000.1,N
1560969815.2,286047000.2,N
1560969835.0,286047002.7,N
1560969835.9,286047002.7,N
1560969855.8,286047002.5,N
1560969875.6,286046999.8,N
1560969895.4,286047000.1,N
1560969915.3,286047000.1,N
1560969935.1,286047002.6,N
1560969955.8,286047001.7,N
1560969975.7,286047002.3,N
1560969995.5,286046998.5,N
1560970015.4,286046997.0,N
1560970035.2,286047001.1,N
1560970055.0,286046998.4,N
1560970055.9,286046998.4,N
1560970075.8,286046998.8,N
1560970095.6,286046998.3,N
1560970115.4,286047000.9,N
1560970135.3,286046998.6,N
1560970155.1,286047000.5,N
1560970175.9,286047000.7,N
1560970195.7,286047001.1,N
1560970215.5,286046999.0,N
1560970235.4,286046998.2,N
1560970255.2,286046998.4,N
1560970275.0,286046998.6,N
1560970276.0,286046998.6,N
1560970295.8,286046998.4,N
1560970315.6,286046998.9,N
1560970335.5,286046996.7,N
1560970355.3,286046998.9,N
1560970375.1,286046999.2,N
1560970395.9,286046997.3,N
1560970415.7,286046996.5,N
1560970435.6,286046997.1,N
1560970455.4,286046996.7,N
1560970475.2,286046997.2,N
1560970495.1,286046996.7,N
1560970496.0,286046996.7,N
1560970515.8,286046996.9,N
1560970535.6,286046996.5,N
1560970555.5,286046997.1,N
1560970575.3,286046997.5,N
1560970595.2,286046995.3,Y
1560970615.9,286046999.1,P
1560970635.7,286046999.4,N
1560970655.6,286046999.6,N
1560970675.4,286046999.5,N
1560970695.2,286046999.2,N
1560970715.1,286046997.3,Y
1560970716.0,286046997.3,P
1560970735.8,286046996.5,P
1560970755.7,286046999.3,N
1560970775.5,286046998.4,N
1560970795.3,286046999.0,N
